Location: ??????
(42.0089°N, 44.3281°E)
Time: 12:51:26
(UTC+00:00)

Cosmos 220 Rocket - Pass Details

Date: 30 May 2022
Orbit: 572 x 614 km, 74.0° (Epoch: 03 July)

Event Time Altitude Azimuth Distance (km) Brightness Sun altitude
Exits shadow 19:57:04 46° 58° (ENE) 778 4.6 -24.5°
Drops below altitude 10° 20:00:17 10° 28° (NNE) 1,885 7.1 -24.6°
Sets 20:02:31 0° 24° (NNE) 2,790 8.2 -24.7°
